Meteo Giornale » Osservazioni meteo Stati Uniti (USA) » Lincoln Logan

ore: 03:15 - Osservazioni Meteo Lincoln Logan
Lat. 40° 9' N Lon. 89° 20' W Alt. 182 metri s.l.m.

sereno

25 °C

Sereno

Temp. 24 Ore

19 °C

35 °C

Nord

5.5 Km/h

Dew point 21 °C

Umidità 78 %

Visibilità  10 Km

Il sole sorge alle ore 06:25

Il sole tramonta alle ore 19:29

Data e Ora Cielo e Fenomeni T °C DP °C Um. % Pres. hPa Vis. km Vento km/h
Oggi h: 03:15 sereno Sereno 25 21 78 1015 10 N 5.5
Oggi h: 02:55 sereno Sereno 25 22 83 1015 10 N 5.5
Oggi h: 02:35 sereno Sereno 25 22 83 1015 10 N 5.5
Oggi h: 02:15 sereno Sereno 25 22 83 1015 10 S 7.4
Oggi h: 01:55 sereno Sereno 25 22 83 1015 10 N 5.5
Oggi h: 01:35 sereno Sereno 25 22 83 1015 10 N 0
Oggi h: 01:15 sereno Sereno 26 22 78 1015 10 N 5.5
Oggi h: 00:55 sereno Sereno 26 22 78 1015 10 N 0
Oggi h: 00:35 sereno Sereno 26 22 78 1015 10 N 5.5
Oggi h: 00:15 sereno Sereno 26 22 78 1015 10 S/SO 7.4
Ieri h: 23:55 sereno Sereno 27 22 74 1015 10 N 5.5
Ieri h: 23:35 sereno Sereno 27 22 74 1015 10 S/SO 7.4
Ieri h: 23:15 sereno Sereno 27 22 74 1015 10 N 5.5
Ieri h: 22:55 sereno Sereno 27 22 74 1015 10 N 5.5
Ieri h: 22:35 sereno Sereno 27 22 74 1015 10 N 0
Ieri h: 22:15 sereno Sereno 27 22 74 1015 10 N 5.5
Ieri h: 21:55 sereno Sereno 28 22 69 1015 10 N 5.5
Ieri h: 21:35 sereno Sereno 28 22 69 1015 10 N 5.5
Ieri h: 21:15 sereno Sereno 28 22 69 1015 10 N 5.5
Ieri h: 20:55 sereno Sereno 29 22 66 1015 10 N 5.5
Ieri h: 20:35 sereno Sereno 30 22 62 1015 10 S/SO 7.4
Ieri h: 20:15 sereno Sereno 30 22 62 1014 10 N 5.5
Ieri h: 19:55 sereno Sereno 30 22 62 1014 10 N 5.5
Ieri h: 19:35 sereno Sereno 31 22 58 1014 10 N 5.5
Ieri h: 19:15 sereno Sereno 31 22 58 1014 10 S 7.4
Ieri h: 18:55 sereno Sereno 32 22 55 1014 10 S 11.1
Ieri h: 18:35 sereno Sereno 33 22 52 1014 10 S 14.8
Ieri h: 18:15 sereno Sereno 33 23 55 1014 10 S 14.8
Ieri h: 17:55 sereno Sereno 34 23 52 1014 10 S 14.8
Ieri h: 17:35 sereno Sereno 34 23 52 1014 10 S 16.7
Ieri h: 17:15 sereno Sereno 35 23 49 1014 10 S 16.7
Ieri h: 16:55 sereno Sereno 35 23 49 1014 10 S 14.8
Ieri h: 16:35 sereno Sereno 35 23 49 1014 10 S 18.5
Ieri h: 16:15 sereno Sereno 35 22 47 1014 10 S 16.7
Ieri h: 15:55 sereno Sereno 35 22 47 1014 10 S 18.5
Ieri h: 15:35 sereno Sereno 35 23 49 1014 10 S 11.1
Ieri h: 15:15 sereno Sereno 35 22 47 1014 10 S 16.7
Ieri h: 14:55 sereno Sereno 35 22 47 1014 10 S 14.8
Ieri h: 14:35 sereno Sereno 35 22 47 1015 10 S 18.5
Ieri h: 14:15 sereno Sereno 35 22 47 1015 10 S 14.8
Ieri h: 13:55 sereno Sereno 35 22 47 1015 10 S 13
Ieri h: 13:35 sereno Sereno 35 22 47 1015 10 S 18.5
Ieri h: 13:15 sereno Sereno 35 21 44 1015 10 S 14.8
Ieri h: 12:55 sereno Sereno 34 21 46 1016 10 S/SO 9.3
Ieri h: 12:35 sereno Sereno 34 21 46 1016 10 S/SO 11.1
Ieri h: 12:15 sereno Sereno 33 21 49 1016 10 S/SO 11.1
Ieri h: 11:55 sereno Sereno 33 21 49 1016 10 S/SO 9.3
Ieri h: 11:35 nuvoloso Nuvoloso 32 21 52 1016 10 S 13
Ieri h: 11:15 nuvoloso Nuvoloso 32 20 49 1016 10 S/SO 13
Ieri h: 10:55 sereno Sereno 31 20 52 1016 10 SO 7.4
Ieri h: 10:35 sereno Sereno 30 20 55 1016 10 SO 7.4
Ieri h: 10:15 sereno Sereno 30 19 51 1016 10 SO 9.3
Ieri h: 09:55 sereno Sereno 29 20 58 1016 10 S/SO 9.3
Ieri h: 09:35 sereno Sereno 28 19 58 1016 10 S/SO 11.1
Ieri h: 09:15 sereno Sereno 27 19 61 1016 10 S/SO 14.8
Ieri h: 08:55 sereno Sereno 25 19 69 1016 10 S 11.1
Ieri h: 08:35 sereno Sereno 25 19 69 1016 10 S 9.3
Ieri h: 08:15 sereno Sereno 23 19 78 1016 10 S 11.1
Ieri h: 07:55 sereno Sereno 22 18 78 1016 10 N 0
Ieri h: 07:35 sereno Sereno 21 18 82 1016 10 S 7.4
Ieri h: 07:15 sereno Sereno 21 18 82 1016 10 N 0
Ieri h: 06:55 sereno Sereno 19 18 93 1016 10 N 0
Ieri h: 06:35 sereno Sereno 19 18 93 1016 10 N 0
Ieri h: 06:15 sereno Sereno 19 18 93 1015 10 N 0
Ieri h: 05:55 sereno Sereno 19 18 93 1015 10 N 0
Ieri h: 05:35 sereno Sereno 20 18 88 1015 10 N 0
Ieri h: 05:15 sereno Sereno 21 17 77 1015 10 N 5.5
Ieri h: 04:55 sereno Sereno 21 18 82 1015 10 N 0
Ieri h: 04:35 sereno Sereno 21 18 82 1015 10 N 5.5
Ieri h: 04:15 sereno Sereno 22 18 78 1015 10 S 7.4
Ieri h: 03:55 sereno Sereno 22 18 78 1015 10 N 5.5
Ieri h: 03:35 sereno Sereno 22 18 78 1015 10 N 0